UAL155 PGUM-PTKK

Flight info

Callsign UAL155
Flight time 1h 24m
Altitude 39000
Route GUNSS WUMVE
Aircraft B738/M-SDE2E3FGHIRWXY/LB1

Departure

Time 2026-04-16 01:44
Airport Antonio B. Won Pat International Airport (PGUM)

Arrival

Time 2026-04-16 03:08
Airport Chuuk International Airport (PTKK)
Time Latitude Longitude Altitude Speed Heading
2026-04-16 01:21 13.49314 144.80797 298 ft 0 kts 332°
2026-04-16 01:38 13.49311 144.80799 299 ft 3 kts 332°
2026-04-16 01:38 13.49287 144.80811 297 ft 4 kts 335°
2026-04-16 01:38 13.49262 144.80822 298 ft 4 kts 342°
2026-04-16 01:39 13.49236 144.80828 297 ft 4 kts
2026-04-16 01:39 13.49215 144.80822 298 ft 2 kts 60°
2026-04-16 01:39 13.49214 144.80820 298 ft 0 kts 63°
2026-04-16 01:41 13.49222 144.80836 297 ft 5 kts 63°
2026-04-16 01:41 13.49244 144.80880 296 ft 9 kts 62°
2026-04-16 01:41 13.49271 144.80938 297 ft 9 kts 75°
2026-04-16 01:42 13.49247 144.80988 301 ft 9 kts 159°
2026-04-16 01:42 13.49190 144.80977 299 ft 8 kts 202°
2026-04-16 01:42 13.49137 144.80956 297 ft 8 kts 197°
2026-04-16 01:42 13.49083 144.80942 300 ft 8 kts 193°
2026-04-16 01:43 13.49039 144.80903 297 ft 15 kts 239°
2026-04-16 01:43 13.48900 144.80603 296 ft 78 kts 245°
2026-04-16 01:43 13.48588 144.79921 284 ft 131 kts 245°
2026-04-16 01:43 13.48211 144.78989 680 ft 144 kts 246°
2026-04-16 01:44 13.47755 144.78060 1264 ft 154 kts 224°
2026-04-16 01:44 13.46674 144.77779 1892 ft 177 kts 176°
2026-04-16 01:44 13.45549 144.78551 2450 ft 222 kts 143°
2026-04-16 01:44 13.44672 144.80030 2636 ft 257 kts 127°
2026-04-16 01:45 13.43685 144.81630 2737 ft 272 kts 138°
2026-04-16 01:45 13.42423 144.83150 3061 ft 287 kts 141°
2026-04-16 01:45 13.41079 144.84688 3741 ft 289 kts 141°
2026-04-16 01:45 13.39740 144.86218 4568 ft 287 kts 141°
2026-04-16 01:46 13.38413 144.87770 5247 ft 292 kts 140°
2026-04-16 01:46 13.37077 144.89361 5926 ft 296 kts 139°
2026-04-16 01:46 13.35732 144.90975 6603 ft 299 kts 139°
2026-04-16 01:46 13.34372 144.92605 7318 ft 303 kts 139°
2026-04-16 01:47 13.32991 144.94260 8101 ft 307 kts 139°
2026-04-16 01:47 13.31610 144.95936 8977 ft 307 kts 138°
2026-04-16 01:47 13.30231 144.97623 9729 ft 311 kts 138°
2026-04-16 01:47 13.28822 144.99343 10318 ft 321 kts 137°
2026-04-16 01:48 13.27344 145.01141 10502 ft 345 kts 137°
2026-04-16 01:48 13.25750 145.03077 10685 ft 365 kts 137°
2026-04-16 01:48 13.24085 145.05107 11051 ft 377 kts 136°
2026-04-16 01:48 13.22390 145.07183 11622 ft 380 kts 136°
2026-04-16 01:49 13.20693 145.09264 12339 ft 381 kts 136°
2026-04-16 01:49 13.18985 145.11360 12997 ft 385 kts 135°
2026-04-16 01:49 13.17253 145.13480 13623 ft 390 kts 135°
2026-04-16 01:49 13.15498 145.15622 14177 ft 394 kts 135°
2026-04-16 01:50 13.13724 145.17786 14717 ft 398 kts 135°
2026-04-16 01:50 13.11929 145.19976 15243 ft 403 kts 135°
2026-04-16 01:50 13.10107 145.22199 15788 ft 407 kts 134°
2026-04-16 01:50 13.08277 145.24432 16371 ft 410 kts 134°
2026-04-16 01:51 13.06427 145.26686 16871 ft 416 kts 135°
2026-04-16 01:51 13.04557 145.28962 17450 ft 418 kts 135°
2026-04-16 01:51 13.02677 145.31252 18058 ft 419 kts 135°
2026-04-16 01:51 13.00814 145.33516 18507 ft 422 kts 134°
2026-04-16 01:52 12.98910 145.35831 18917 ft 427 kts 135°
2026-04-16 01:52 12.96987 145.38173 19340 ft 430 kts 135°
2026-04-16 01:52 12.95055 145.40523 19812 ft 432 kts 134°
2026-04-16 01:52 12.93112 145.42888 20269 ft 435 kts 134°
2026-04-16 01:53 12.91160 145.45260 20728 ft 437 kts 135°
2026-04-16 01:53 12.89188 145.47658 21078 ft 442 kts 134°
2026-04-16 01:53 12.87196 145.50077 21465 ft 445 kts 135°
2026-04-16 01:53 12.85193 145.52511 21899 ft 447 kts 134°
2026-04-16 01:54 12.83186 145.54947 22386 ft 447 kts 134°
2026-04-16 01:54 12.81176 145.57387 22765 ft 450 kts 134°
2026-04-16 01:54 12.79140 145.59856 23060 ft 455 kts 135°
2026-04-16 01:54 12.77093 145.62338 23403 ft 457 kts 135°
2026-04-16 01:55 12.75041 145.64828 23777 ft 457 kts 134°
2026-04-16 01:55 12.72992 145.67314 24157 ft 457 kts 134°
2026-04-16 01:55 12.70938 145.69805 24505 ft 458 kts 135°
2026-04-16 01:55 12.68906 145.72267 24827 ft 459 kts 135°
2026-04-16 01:56 12.66846 145.74763 25170 ft 459 kts 135°
2026-04-16 01:56 12.64782 145.77263 25511 ft 460 kts 135°
2026-04-16 01:56 12.62711 145.79771 25831 ft 461 kts 135°
2026-04-16 01:56 12.60645 145.82272 26202 ft 460 kts 135°
2026-04-16 01:57 12.58575 145.84777 26529 ft 461 kts 135°
2026-04-16 01:57 12.56493 145.87295 26822 ft 463 kts 135°
2026-04-16 01:57 12.54410 145.89814 27100 ft 464 kts 135°
2026-04-16 01:57 12.52319 145.92342 27382 ft 465 kts 135°
2026-04-16 01:58 12.50224 145.94873 27663 ft 466 kts 135°
2026-04-16 01:58 12.48126 145.97409 27940 ft 467 kts 135°
2026-04-16 01:58 12.46021 145.99952 28228 ft 468 kts 135°
2026-04-16 01:58 12.43916 146.02495 28542 ft 468 kts 135°
2026-04-16 01:59 12.41810 146.05039 28796 ft 469 kts 134°
2026-04-16 01:59 12.39724 146.07557 29055 ft 470 kts 134°
2026-04-16 01:59 12.37609 146.10109 29310 ft 471 kts 134°
2026-04-16 01:59 12.35486 146.12671 29542 ft 472 kts 135°
2026-04-16 02:00 12.33356 146.15239 29763 ft 473 kts 135°
2026-04-16 02:00 12.31224 146.17810 29959 ft 474 kts 134°
2026-04-16 02:00 12.29090 146.20382 30201 ft 473 kts 134°
2026-04-16 02:00 12.26968 146.22942 30552 ft 470 kts 134°
2026-04-16 02:01 12.24854 146.25492 30935 ft 467 kts 134°
2026-04-16 02:01 12.22754 146.28022 31283 ft 464 kts 134°
2026-04-16 02:01 12.20667 146.30536 31598 ft 463 kts 134°
2026-04-16 02:01 12.18593 146.33034 32052 ft 457 kts 134°
2026-04-16 02:02 12.16553 146.35490 32587 ft 451 kts 134°
2026-04-16 02:02 12.14523 146.37932 32882 ft 451 kts 133°
2026-04-16 02:02 12.12487 146.40379 33057 ft 453 kts 133°
2026-04-16 02:02 12.10454 146.42823 33512 ft 448 kts 133°
2026-04-16 02:03 12.08445 146.45238 33905 ft 445 kts 133°
2026-04-16 02:03 12.06464 146.47619 34112 ft 446 kts 133°
2026-04-16 02:03 12.04434 146.50056 34191 ft 451 kts 133°
2026-04-16 02:04 12.00405 146.54893 34901 ft 444 kts 133°
2026-04-16 02:04 11.98396 146.57304 35062 ft 447 kts 133°
2026-04-16 02:04 11.96376 146.59731 35165 ft 450 kts 132°
2026-04-16 02:04 11.94338 146.62172 35350 ft 451 kts 132°
2026-04-16 02:05 11.92312 146.64599 35684 ft 449 kts 133°
2026-04-16 02:05 11.90285 146.67033 35845 ft 451 kts 131°
2026-04-16 02:05 11.86177 146.71962 36031 ft 458 kts 134°
2026-04-16 02:06 11.84118 146.74430 36390 ft 455 kts 133°
2026-04-16 02:06 11.82083 146.76869 36501 ft 458 kts 133°
2026-04-16 02:06 11.77918 146.81857 36762 ft 463 kts 131°
2026-04-16 02:07 11.75824 146.84362 36952 ft 464 kts 132°
2026-04-16 02:07 11.73730 146.86870 37198 ft 463 kts 132°
2026-04-16 02:07 11.71642 146.89371 37408 ft 464 kts 131°
2026-04-16 02:07 11.69543 146.91889 37529 ft 466 kts 131°
2026-04-16 02:08 11.67434 146.94413 37701 ft 467 kts 130°
2026-04-16 02:08 11.65330 146.96928 38036 ft 464 kts 131°
2026-04-16 02:08 11.63230 146.99438 38190 ft 466 kts 130°
2026-04-16 02:08 11.61152 147.01921 38315 ft 467 kts 130°
2026-04-16 02:09 11.59040 147.04445 38529 ft 467 kts 130°
2026-04-16 02:09 11.56930 147.06965 38637 ft 464 kts 130°
2026-04-16 02:09 11.52769 147.11934 38749 ft 461 kts 130°
2026-04-16 02:10 11.49292 147.16089 38759 ft 466 kts 130°
2026-04-16 02:10 11.44321 147.22019 38776 ft 473 kts 129°
2026-04-16 02:11 11.40022 147.27142 38767 ft 476 kts 129°
2026-04-16 02:11 11.35764 147.32211 38749 ft 470 kts 129°
2026-04-16 02:12 11.31552 147.37229 38754 ft 463 kts 129°
2026-04-16 02:12 11.27364 147.42214 38768 ft 465 kts 128°
2026-04-16 02:13 11.23132 147.47254 38780 ft 470 kts 129°
2026-04-16 02:13 11.18855 147.52347 38776 ft 475 kts 128°
2026-04-16 02:14 11.14536 147.57477 38779 ft 477 kts 129°
2026-04-16 02:14 11.10265 147.62550 38758 ft 465 kts 128°
2026-04-16 02:15 11.06068 147.67539 38769 ft 463 kts 129°
2026-04-16 02:15 11.01897 147.72495 38779 ft 463 kts 129°
2026-04-16 02:16 10.97697 147.77478 38781 ft 464 kts 129°
2026-04-16 02:16 10.93479 147.82478 38784 ft 465 kts 129°
2026-04-16 02:17 10.89973 147.86640 38780 ft 467 kts 129°
2026-04-16 02:17 10.85042 147.92477 38794 ft 467 kts 129°
2026-04-16 02:18 10.81512 147.96654 38785 ft 467 kts 128°
2026-04-16 02:18 10.77280 148.01670 38778 ft 466 kts 129°
2026-04-16 02:19 10.73065 148.06664 38779 ft 464 kts 128°
2026-04-16 02:19 10.68838 148.11623 38782 ft 462 kts 129°
2026-04-16 02:20 10.64620 148.16548 38785 ft 461 kts 129°
2026-04-16 02:20 10.60423 148.21454 38794 ft 459 kts 129°
2026-04-16 02:21 10.56245 148.26335 38795 ft 456 kts 129°
2026-04-16 02:21 10.52115 148.31149 38791 ft 452 kts 128°
2026-04-16 02:22 10.48002 148.35961 38787 ft 449 kts 129°
2026-04-16 02:22 10.43892 148.40765 38792 ft 446 kts 128°
2026-04-16 02:23 10.39854 148.45479 38790 ft 444 kts 129°
2026-04-16 02:23 10.35788 148.50224 38804 ft 447 kts 128°
2026-04-16 02:24 10.31686 148.55022 38800 ft 452 kts 129°
2026-04-16 02:24 10.27545 148.59850 38801 ft 455 kts 129°
2026-04-16 02:25 10.23394 148.64693 38801 ft 452 kts 128°
2026-04-16 02:25 10.19283 148.69477 38792 ft 446 kts 129°
2026-04-16 02:26 10.15232 148.74196 38796 ft 444 kts 128°
2026-04-16 02:26 10.11177 148.78918 38801 ft 443 kts 129°
2026-04-16 02:27 10.07118 148.83636 38815 ft 445 kts 128°
2026-04-16 02:27 10.03016 148.88403 38816 ft 450 kts 128°
2026-04-16 02:28 9.98887 148.93210 38807 ft 453 kts 129°
2026-04-16 02:28 9.94732 148.98034 38811 ft 454 kts 128°
2026-04-16 02:29 9.90595 149.02837 38794 ft 448 kts 129°
2026-04-16 02:29 9.86537 149.07550 38803 ft 445 kts 129°
2026-04-16 02:30 9.82482 149.12259 38809 ft 442 kts 129°
2026-04-16 02:30 9.78438 149.16948 38805 ft 443 kts 129°
2026-04-16 02:31 9.74359 149.21684 38824 ft 448 kts 129°
2026-04-16 02:31 9.70256 149.26442 38808 ft 448 kts 129°
2026-04-16 02:32 9.66143 149.31207 38807 ft 448 kts 129°
2026-04-16 02:32 9.62048 149.35949 38814 ft 447 kts 129°
2026-04-16 02:33 9.57980 149.40658 38807 ft 446 kts 129°
2026-04-16 02:33 9.53895 149.45385 38815 ft 445 kts 129°
2026-04-16 02:34 9.49812 149.50108 38812 ft 445 kts 129°
2026-04-16 02:34 9.45734 149.54825 38816 ft 445 kts 129°
2026-04-16 02:35 9.41663 149.59532 38811 ft 444 kts 129°
2026-04-16 02:35 9.37591 149.64238 38819 ft 443 kts 129°
2026-04-16 02:36 9.33530 149.68929 38821 ft 442 kts 129°
2026-04-16 02:36 9.29501 149.73582 38816 ft 442 kts 129°
2026-04-16 02:37 9.25447 149.78261 38825 ft 441 kts 129°
2026-04-16 02:37 9.21399 149.82931 38819 ft 441 kts 129°
2026-04-16 02:38 9.17344 149.87609 38825 ft 441 kts 129°
2026-04-16 02:38 9.13329 149.92237 38829 ft 440 kts 129°
2026-04-16 02:39 9.09288 149.96896 38824 ft 440 kts 129°
2026-04-16 02:39 9.05245 150.01554 38822 ft 440 kts 129°
2026-04-16 02:40 9.01206 150.06205 38827 ft 440 kts 129°
2026-04-16 02:40 8.97158 150.10865 38825 ft 440 kts 129°
2026-04-16 02:41 8.93119 150.15514 38832 ft 440 kts 129°
2026-04-16 02:41 8.89060 150.20185 38285 ft 446 kts 129°
2026-04-16 02:42 8.87013 150.22540 37721 ft 444 kts 130°
2026-04-16 02:42 8.84977 150.24880 37127 ft 443 kts 130°
2026-04-16 02:42 8.82947 150.27214 36529 ft 442 kts 130°
2026-04-16 02:42 8.80919 150.29545 35939 ft 441 kts 130°
2026-04-16 02:43 8.78892 150.31875 35295 ft 442 kts 131°
2026-04-16 02:43 8.76856 150.34214 34623 ft 444 kts 131°
2026-04-16 02:43 8.74812 150.36562 33930 ft 446 kts 131°
2026-04-16 02:43 8.72755 150.38925 33145 ft 449 kts 132°
2026-04-16 02:44 8.70720 150.41262 32543 ft 447 kts 132°
2026-04-16 02:44 8.68677 150.43608 32051 ft 443 kts 132°
2026-04-16 02:44 8.66647 150.45939 31553 ft 439 kts 132°
2026-04-16 02:44 8.64634 150.48250 31071 ft 436 kts 133°
2026-04-16 02:45 8.62638 150.50540 30594 ft 433 kts 132°
2026-04-16 02:45 8.60657 150.52813 30126 ft 429 kts 133°
2026-04-16 02:45 8.58686 150.55076 29581 ft 427 kts 133°
2026-04-16 02:45 8.56729 150.57321 29058 ft 424 kts 133°
2026-04-16 02:46 8.54788 150.59548 28553 ft 420 kts 133°
2026-04-16 02:46 8.52859 150.61759 28065 ft 417 kts 133°
2026-04-16 02:46 8.50950 150.63948 27595 ft 413 kts 133°
2026-04-16 02:46 8.49056 150.66120 27121 ft 411 kts 133°
2026-04-16 02:47 8.47173 150.68281 26658 ft 408 kts 134°
2026-04-16 02:47 8.45302 150.70424 26197 ft 406 kts 133°
2026-04-16 02:47 8.43466 150.72527 25737 ft 404 kts 134°
2026-04-16 02:47 8.41608 150.74654 25273 ft 403 kts 134°
2026-04-16 02:48 8.39754 150.76777 24797 ft 402 kts 134°
2026-04-16 02:48 8.37903 150.78894 24327 ft 402 kts 134°
2026-04-16 02:48 8.36057 150.81009 23857 ft 401 kts 134°
2026-04-16 02:48 8.34206 150.83127 23390 ft 401 kts 134°
2026-04-16 02:49 8.32358 150.85243 22845 ft 401 kts 134°
2026-04-16 02:49 8.30518 150.87348 22364 ft 399 kts 134°
2026-04-16 02:49 8.28682 150.89450 21898 ft 396 kts 134°
2026-04-16 02:49 8.26885 150.91506 21434 ft 394 kts 134°
2026-04-16 02:50 8.25078 150.93574 20976 ft 391 kts 134°
2026-04-16 02:50 8.23281 150.95630 20532 ft 389 kts 134°
2026-04-16 02:50 8.21488 150.97680 20065 ft 387 kts 134°
2026-04-16 02:50 8.19713 150.99709 19602 ft 386 kts 134°
2026-04-16 02:51 8.17940 151.01735 19146 ft 384 kts 134°
2026-04-16 02:51 8.16173 151.03755 18687 ft 383 kts 134°
2026-04-16 02:51 8.14412 151.05767 18217 ft 381 kts 134°
2026-04-16 02:51 8.12661 151.07768 17709 ft 379 kts 134°
2026-04-16 02:52 8.10919 151.09760 17223 ft 377 kts 135°
2026-04-16 02:52 8.09189 151.11737 16767 ft 374 kts 135°
2026-04-16 02:52 8.07472 151.13699 16309 ft 371 kts 135°
2026-04-16 02:52 8.05769 151.15645 15840 ft 369 kts 135°
2026-04-16 02:53 8.04070 151.17584 15379 ft 368 kts 135°
2026-04-16 02:53 8.02378 151.19517 14916 ft 367 kts 135°
2026-04-16 02:53 8.00690 151.21444 14458 ft 365 kts 136°
2026-04-16 02:53 7.99033 151.23335 14009 ft 364 kts 136°
2026-04-16 02:54 7.97355 151.25249 13533 ft 364 kts 136°
2026-04-16 02:54 7.95679 151.27162 13052 ft 362 kts 136°
2026-04-16 02:54 7.94017 151.29058 12601 ft 360 kts 136°
2026-04-16 02:54 7.92363 151.30946 12158 ft 357 kts 136°
2026-04-16 02:55 7.90721 151.32819 11705 ft 355 kts 136°
2026-04-16 02:55 7.89090 151.34681 11277 ft 353 kts 136°
2026-04-16 02:55 7.87469 151.36529 10837 ft 351 kts 136°
2026-04-16 02:55 7.85855 151.38370 10501 ft 346 kts 136°
2026-04-16 02:56 7.84279 151.40169 10311 ft 337 kts 136°
2026-04-16 02:56 7.82751 151.41913 10163 ft 327 kts 136°
2026-04-16 02:56 7.81267 151.43606 10024 ft 318 kts 136°
2026-04-16 02:56 7.79818 151.45259 9890 ft 309 kts 136°
2026-04-16 02:57 7.78627 151.47041 9791 ft 307 kts 116°
2026-04-16 02:57 7.77947 151.49071 9351 ft 311 kts 111°
2026-04-16 02:57 7.77308 151.51169 8963 ft 313 kts 111°
2026-04-16 02:57 7.76686 151.53244 8630 ft 312 kts 111°
2026-04-16 02:58 7.76059 151.55329 8333 ft 310 kts 111°
2026-04-16 02:58 7.75429 151.57399 8038 ft 308 kts 111°
2026-04-16 02:58 7.74800 151.59452 7749 ft 305 kts 111°
2026-04-16 02:58 7.74172 151.61488 7461 ft 303 kts 111°
2026-04-16 02:59 7.73546 151.63510 7182 ft 301 kts 111°
2026-04-16 02:59 7.72922 151.65523 6897 ft 299 kts 111°
2026-04-16 02:59 7.72302 151.67519 6614 ft 297 kts 111°
2026-04-16 02:59 7.71684 151.69505 6322 ft 296 kts 111°
2026-04-16 03:00 7.71070 151.71481 6009 ft 292 kts 111°
2026-04-16 03:00 7.70466 151.73422 5698 ft 285 kts 111°
2026-04-16 03:00 7.69885 151.75291 5413 ft 278 kts 111°
2026-04-16 03:00 7.69314 151.77126 5142 ft 271 kts 111°
2026-04-16 03:01 7.68755 151.78921 4875 ft 265 kts 112°
2026-04-16 03:01 7.68211 151.80669 4641 ft 258 kts 111°
2026-04-16 03:01 7.67681 151.82371 4569 ft 253 kts 111°
2026-04-16 03:01 7.67151 151.84066 4293 ft 254 kts 111°
2026-04-16 03:02 7.66621 151.85764 4040 ft 253 kts 112°
2026-04-16 03:02 7.66101 151.87434 3867 ft 244 kts 112°
2026-04-16 03:02 7.65481 151.88965 3744 ft 229 kts 132°
2026-04-16 03:02 7.64371 151.90077 3685 ft 225 kts 141°
2026-04-16 03:03 7.63247 151.91156 3618 ft 221 kts 141°
2026-04-16 03:03 7.62514 151.91866 3530 ft 219 kts 140°
2026-04-16 03:03 7.61426 151.92920 3416 ft 215 kts 140°
2026-04-16 03:03 7.60352 151.93958 3314 ft 213 kts 140°
2026-04-16 03:04 7.59243 151.94963 3081 ft 214 kts 150°
2026-04-16 03:04 7.57852 151.95346 2863 ft 205 kts 185°
2026-04-16 03:04 7.56547 151.94916 2653 ft 194 kts 211°
2026-04-16 03:04 7.55551 151.94034 2428 ft 187 kts 224°
2026-04-16 03:05 7.54667 151.93113 2200 ft 180 kts 223°
2026-04-16 03:05 7.53814 151.92225 1992 ft 174 kts 224°
2026-04-16 03:05 7.52987 151.91366 1779 ft 172 kts 224°
2026-04-16 03:05 7.52136 151.90484 1556 ft 178 kts 223°
2026-04-16 03:06 7.51297 151.89609 1296 ft 168 kts 223°
2026-04-16 03:06 7.50529 151.88809 1147 ft 150 kts 223°
2026-04-16 03:06 7.49175 151.87405 734 ft 133 kts 224°
2026-04-16 03:07 7.48522 151.86718 580 ft 134 kts 223°
2026-04-16 03:07 7.47892 151.86060 412 ft 127 kts 224°
2026-04-16 03:07 7.47276 151.85412 202 ft 130 kts 222°
2026-04-16 03:07 7.46642 151.84754 34 ft 129 kts 219°
2026-04-16 03:08 7.46112 151.84209 13 ft 69 kts 226°
2026-04-16 03:08 7.46000 151.84093 14 ft 0 kts 226°
2026-04-16 03:08 7.45983 151.84076 14 ft 7 kts 225°
2026-04-16 03:08 7.45921 151.84037 15 ft 13 kts 186°
2026-04-16 03:09 7.45860 151.84067 16 ft 6 kts 142°
2026-04-16 03:09 7.45847 151.84074 14 ft 1 kts 148°
2026-04-16 03:09 7.45847 151.84086 14 ft 4 kts 83°
2026-04-16 03:09 7.45859 151.84123 14 ft 5 kts 73°
2026-04-16 03:10 7.45849 151.84153 16 ft 4 kts 137°
2026-04-16 03:10 7.45829 151.84149 14 ft 2 kts 218°
2026-04-16 03:10 7.45824 151.84144 14 ft 0 kts 224°